CZ-6A DEB, 54573

Orbit data source: Space-Track

CZ-6A DEB, 54573 is space debris in SSO originally from a launch on Fri, 11 Nov 2022 UTC launched from the Taiyaun Space Center, China (TSC). Debris objects in space refer to the collection of defunct objects orbiting the Earth. Examples of debris include non-operational satellites, rocket bodies, and fragments generated from explosions, collisions, or faulty payload assembly.

Loading next visibility...
Identifier
54573, 2022-151LZ
Orbit
SSO
Country
Flag of CNCN / PRC
Related business
Manufacturer
SAST
Mission
Spacecraft
Bus & Motor
Unknown
Mass
Unknown
Launch date (UTC)
2022-11-11 (4 years ago)
Launch vehicle
Unknown
Launch site
Taiyaun Space Center, China (TSC)
Object type
Payload
Rocket body
Debris
Shape & HBR
Unknown shape, 0.1 m
Radar Cross Section
Medium (>0.1 m² and <1 m²)

Expand to show TLE details & history
Last TLE update: 7 hours ago

TLE from 7 hours ago
0 CZ-6A DEB
1 54573U 22151LZ  26236.56408835  .00002891  00000-0  65724-3 0  9990
2 54573  98.6054 292.4369 0094343  95.6721 265.5242 14.54047531198969
Epoch: 2026-08-24T13:32Z
TLE epoch observation values (Epoch: 2026-08-24T13:32:17.233Z)
Latitude
0.00003°
Longitude
116.52111°
Altitude
721.272 km
Speed
7.492 km/s
True Right ascension
19h 29m 44s
True Declination
0° 00' 00"
Sunlit
Object was in full shadow at epoch
Visualization orbit readout
Latitude
Unknown
Longitude
Unknown
Altitude
Unknown
Speed
Unknown
Apparent Right ascension
Unknown
Apparent Declination
Unknown
Sunlit
N/A
Visualization observer readout
Local Sidereal Time
12:09:05
Azimuth
Unknown
Elevation
Unknown
Doppler factor
Unknown
Orbital elements
Apogee altitude
776.435 km
Perigee altitude
642.7 km
Semi-major axis
7,087.704 km
Eccentricity
0.00943
Inclination
98.6054°
RAAN
292.4369°
Arg. of periapsis
95.6721°
True anomaly
264.44746°
Mean anomaly
265.5242°
Eccentric anomaly
264.98572°
Mean motion
3.63735 °/min
Orbital period
98.97 mins
BSTAR
0.00065724
Loading maneuver chart data...
Computing Atmospheric mass density...
Loading historical data...
Loading historical data...
Loading historical data...
Loading historical data...
Loading historical data...
Loading historical data...
Loading historical data...

Documentation

Showing up to 5 results
|